Time,TemperatureF,DewpointF,PressureIn,WindDirection,WindDirectionDegrees,WindSpeedMPH,WindSpeedGustMPH,Humidity,HourlyPrecipIn,Conditions,Clouds,dailyrainin,SoftwareType,DateUTC
2013-10-08 00:06:00,51.1,45.0,30.03,SE,146,2.0,4.0,79,0.00,,,0.00,weatherlink.com 1.10,2013-10-08 05:06:00,
2013-10-08 00:21:00,50.9,45.0,30.03,SSE,157,4.0,4.0,79,0.00,,,0.00,weatherlink.com 1.10,2013-10-08 05:21:00,
2013-10-08 00:36:00,50.5,44.0,30.02,South,176,3.0,5.0,79,0.00,,,0.00,weatherlink.com 1.10,2013-10-08 05:36:00,
2013-10-08 00:51:00,49.4,44.0,30.02,SSE,167,3.0,5.0,80,0.00,,,0.00,weatherlink.com 1.10,2013-10-08 05:51:00,
2013-10-08 01:06:00,49.5,43.0,30.02,South,181,3.0,4.0,79,0.00,,,0.00,weatherlink.com 1.10,2013-10-08 06:06:00,
2013-10-08 01:21:00,49.4,44.0,30.02,SSE,149,4.0,5.0,80,0.00,,,0.00,weatherlink.com 1.10,2013-10-08 06:21:00,
2013-10-08 01:36:00,49.1,43.0,30.02,SSE,158,3.0,4.0,80,0.00,,,0.00,weatherlink.com 1.10,2013-10-08 06:36:00,
2013-10-08 01:51:00,49.4,43.0,30.02,SSE,157,2.0,4.0,79,0.00,,,0.00,weatherlink.com 1.10,2013-10-08 06:51:00,
2013-10-08 02:06:00,49.2,43.0,30.02,SSE,150,4.0,5.0,79,0.00,,,0.00,weatherlink.com 1.10,2013-10-08 07:06:00,
2013-10-08 02:21:00,48.8,43.0,30.03,SSE,162,3.0,4.0,80,0.00,,,0.00,weatherlink.com 1.10,2013-10-08 07:21:00,
2013-10-08 02:36:00,48.9,43.0,30.03,SSW,198,4.0,5.0,79,0.00,,,0.00,weatherlink.com 1.10,2013-10-08 07:36:00,
2013-10-08 02:51:00,48.6,43.0,30.02,SSE,162,4.0,6.0,80,0.00,,,0.00,weatherlink.com 1.10,2013-10-08 07:51:00,
2013-10-08 03:06:00,47.8,42.0,30.02,SSE,167,2.0,5.0,81,0.00,,,0.00,weatherlink.com 1.10,2013-10-08 08:06:00,
2013-10-08 03:21:00,47.0,42.0,30.02,SSE,166,4.0,5.0,83,0.00,,,0.00,weatherlink.com 1.10,2013-10-08 08:21:00,
2013-10-08 03:36:00,47.1,42.0,30.02,South,191,4.0,6.0,83,0.00,,,0.00,weatherlink.com 1.10,2013-10-08 08:36:00,
2013-10-08 03:51:00,46.9,42.0,30.02,SSE,167,7.0,7.0,84,0.00,,,0.00,weatherlink.com 1.10,2013-10-08 08:51:00,
2013-10-08 04:06:00,47.1,42.0,30.01,South,187,4.0,7.0,83,0.00,,,0.00,weatherlink.com 1.10,2013-10-08 09:06:00,
2013-10-08 04:21:00,47.0,42.0,30.01,South,182,5.0,8.0,83,0.00,,,0.00,weatherlink.com 1.10,2013-10-08 09:21:00,
2013-10-08 04:36:00,46.8,42.0,30.01,South,188,5.0,8.0,84,0.00,,,0.00,weatherlink.com 1.10,2013-10-08 09:36:00,
2013-10-08 04:51:00,46.9,43.0,30.01,South,170,6.0,10.0,85,0.00,,,0.00,weatherlink.com 1.10,2013-10-08 09:51:00,
2013-10-08 05:06:00,46.6,42.0,30.01,SSW,193,7.0,10.0,85,0.00,,,0.00,weatherlink.com 1.10,2013-10-08 10:06:00,
2013-10-08 05:21:00,46.4,43.0,30.01,South,179,7.0,9.0,86,0.00,,,0.00,weatherlink.com 1.10,2013-10-08 10:21:00,
2013-10-08 05:36:00,46.9,43.0,30.01,South,190,9.0,11.0,85,0.00,,,0.00,weatherlink.com 1.10,2013-10-08 10:36:00,
2013-10-08 05:51:00,47.0,43.0,30.01,SSW,196,7.0,11.0,85,0.00,,,0.00,weatherlink.com 1.10,2013-10-08 10:51:00,
2013-10-08 06:06:00,47.2,43.0,30.02,SSW,199,8.0,13.0,85,0.00,,,0.00,weatherlink.com 1.10,2013-10-08 11:06:00,
2013-10-08 06:21:00,47.2,43.0,30.01,South,181,7.0,13.0,85,0.00,,,0.00,weatherlink.com 1.10,2013-10-08 11:21:00,
2013-10-08 06:36:00,47.0,43.0,30.01,South,179,10.0,11.0,85,0.00,,,0.00,weatherlink.com 1.10,2013-10-08 11:36:00,
2013-10-08 06:51:00,46.8,43.0,30.01,SSW,195,7.0,13.0,86,0.00,,,0.00,weatherlink.com 1.10,2013-10-08 11:51:00,
2013-10-08 07:06:00,46.7,43.0,30.02,SSE,162,5.0,11.0,86,0.00,,,0.00,weatherlink.com 1.10,2013-10-08 12:06:00,
2013-10-08 07:21:00,46.5,43.0,30.02,SSE,168,7.0,11.0,86,0.00,,,0.00,weatherlink.com 1.10,2013-10-08 12:21:00,
2013-10-08 07:36:00,46.8,43.0,30.02,SSW,194,7.0,12.0,86,0.00,,,0.00,weatherlink.com 1.10,2013-10-08 12:36:00,
2013-10-08 07:51:00,47.7,43.0,30.02,South,180,8.0,13.0,85,0.00,,,0.00,weatherlink.com 1.10,2013-10-08 12:51:00,
2013-10-08 08:06:00,48.9,44.0,30.02,SE,131,4.0,13.0,83,0.00,,,0.00,weatherlink.com 1.10,2013-10-08 13:06:00,
2013-10-08 08:21:00,50.3,44.0,30.02,SSW,202,7.0,16.0,80,0.00,,,0.00,weatherlink.com 1.10,2013-10-08 13:21:00,
2013-10-08 08:37:00,52.3,45.0,30.02,SSE,161,10.0,16.0,77,0.00,,,0.00,weatherlink.com 1.10,2013-10-08 13:37:00,
2013-10-08 08:52:00,53.9,45.0,30.02,SSW,200,11.0,16.0,73,0.00,,,0.00,weatherlink.com 1.10,2013-10-08 13:52:00,
2013-10-08 09:07:00,55.2,46.0,30.02,SSW,198,12.0,19.0,70,0.00,,,0.00,weatherlink.com 1.10,2013-10-08 14:07:00,
2013-10-08 09:22:00,56.6,46.0,30.02,SSE,148,8.0,22.0,67,0.00,,,0.00,weatherlink.com 1.10,2013-10-08 14:22:00,
2013-10-08 09:37:00,58.3,46.0,30.02,South,191,11.0,21.0,63,0.00,,,0.00,weatherlink.com 1.10,2013-10-08 14:37:00,
2013-10-08 09:52:00,59.9,46.0,30.02,ESE,115,11.0,24.0,60,0.00,,,0.00,weatherlink.com 1.10,2013-10-08 14:52:00,
2013-10-08 10:07:00,61.1,45.0,30.01,SSW,199,14.0,24.0,56,0.00,,,0.00,weatherlink.com 1.10,2013-10-08 15:07:00,
2013-10-08 10:22:00,62.4,44.0,30.01,SSW,210,22.0,26.0,52,0.00,,,0.00,weatherlink.com 1.10,2013-10-08 15:22:00,
2013-10-08 10:37:00,64.2,45.0,30.01,South,188,27.0,29.0,50,0.00,,,0.00,weatherlink.com 1.10,2013-10-08 15:37:00,
2013-10-08 10:52:00,65.8,43.0,30.00,SW,215,12.0,30.0,44,0.00,,,0.00,weatherlink.com 1.10,2013-10-08 15:52:00,
2013-10-08 11:07:00,67.6,42.0,29.99,SSW,195,20.0,28.0,39,0.00,,,0.00,weatherlink.com 1.10,2013-10-08 16:07:00,
2013-10-08 11:22:00,68.9,42.0,29.99,SSW,210,21.0,32.0,38,0.00,,,0.00,weatherlink.com 1.10,2013-10-08 16:22:00,
2013-10-08 11:37:00,69.2,42.0,29.99,SW,231,20.0,35.0,38,0.00,,,0.00,weatherlink.com 1.10,2013-10-08 16:37:00,
2013-10-08 11:52:00,70.3,42.0,29.98,West,269,27.0,32.0,36,0.00,,,0.00,weatherlink.com 1.10,2013-10-08 16:52:00,
2013-10-08 12:07:00,71.1,41.0,29.98,SSW,213,21.0,31.0,34,0.00,,,0.00,weatherlink.com 1.10,2013-10-08 17:07:00,
2013-10-08 12:22:00,71.4,43.0,29.98,SSE,150,16.0,35.0,36,0.00,,,0.00,weatherlink.com 1.10,2013-10-08 17:22:00,
2013-10-08 12:38:00,71.9,43.0,29.97,South,176,30.0,32.0,36,0.00,,,0.00,weatherlink.com 1.10,2013-10-08 17:38:00,
2013-10-08 12:53:00,72.8,44.0,29.97,SSW,201,25.0,29.0,35,0.00,,,0.00,weatherlink.com 1.10,2013-10-08 17:53:00,
2013-10-08 13:08:00,73.2,44.0,29.96,WSW,240,16.0,31.0,35,0.00,,,0.00,weatherlink.com 1.10,2013-10-08 18:08:00,
2013-10-08 13:23:00,73.8,44.0,29.96,SSW,209,16.0,29.0,34,0.00,,,0.00,weatherlink.com 1.10,2013-10-08 18:23:00,
2013-10-08 13:38:00,74.3,43.0,29.95,South,185,21.0,33.0,33,0.00,,,0.00,weatherlink.com 1.10,2013-10-08 18:38:00,
2013-10-08 13:53:00,74.5,43.0,29.95,West,269,26.0,36.0,32,0.00,,,0.00,weatherlink.com 1.10,2013-10-08 18:53:00,
2013-10-08 14:08:00,75.0,42.0,29.94,SSW,210,20.0,34.0,31,0.00,,,0.00,weatherlink.com 1.10,2013-10-08 19:08:00,
2013-10-08 14:23:00,76.1,42.0,29.93,NNW,333,16.0,32.0,30,0.00,,,0.00,weatherlink.com 1.10,2013-10-08 19:23:00,
2013-10-08 14:38:00,76.2,43.0,29.93,SSW,198,15.0,35.0,30,0.00,,,0.00,weatherlink.com 1.10,2013-10-08 19:38:00,
2013-10-08 14:53:00,76.3,43.0,29.92,SSW,212,18.0,36.0,30,0.00,,,0.00,weatherlink.com 1.10,2013-10-08 19:53:00,
2013-10-08 15:23:00,77.2,43.0,29.92,SW,222,27.0,38.0,29,0.00,,,0.00,weatherlink.com 1.10,2013-10-08 20:23:00,
2013-10-08 15:38:00,76.8,43.0,29.92,SW,216,25.0,37.0,30,0.00,,,0.00,weatherlink.com 1.10,2013-10-08 20:38:00,
2013-10-08 15:53:00,76.6,42.0,29.91,South,186,29.0,36.0,29,0.00,,,0.00,weatherlink.com 1.10,2013-10-08 20:53:00,
2013-10-08 16:08:00,77.1,42.0,29.91,SSW,212,21.0,32.0,29,0.00,,,0.00,weatherlink.com 1.10,2013-10-08 21:08:00,
2013-10-08 16:23:00,77.4,44.0,29.91,SSW,202,28.0,35.0,30,0.00,,,0.00,weatherlink.com 1.10,2013-10-08 21:23:00,
2013-10-08 16:38:00,76.9,43.0,29.91,SSE,163,19.0,33.0,30,0.00,,,0.00,weatherlink.com 1.10,2013-10-08 21:38:00,
2013-10-08 16:53:00,76.1,43.0,29.91,SSE,164,19.0,33.0,31,0.00,,,0.00,weatherlink.com 1.10,2013-10-08 21:53:00,
2013-10-08 17:08:00,76.4,44.0,29.91,SSE,159,18.0,33.0,31,0.00,,,0.00,weatherlink.com 1.10,2013-10-08 22:08:00,
2013-10-08 17:23:00,75.8,43.0,29.91,SW,217,13.0,33.0,31,0.00,,,0.00,weatherlink.com 1.10,2013-10-08 22:23:00,
2013-10-08 17:38:00,74.6,44.0,29.92,SSW,201,16.0,29.0,34,0.00,,,0.00,weatherlink.com 1.10,2013-10-08 22:38:00,
2013-10-08 17:53:00,74.3,45.0,29.92,SSW,212,9.0,28.0,35,0.00,,,0.00,weatherlink.com 1.10,2013-10-08 22:53:00,
2013-10-08 18:08:00,72.7,45.0,29.92,SSE,166,11.0,26.0,37,0.00,,,0.00,weatherlink.com 1.10,2013-10-08 23:08:00,
2013-10-08 18:23:00,71.4,46.0,29.92,SSW,194,14.0,20.0,40,0.00,,,0.00,weatherlink.com 1.10,2013-10-08 23:23:00,
2013-10-08 18:38:00,70.2,46.0,29.93,SE,146,6.0,16.0,42,0.00,,,0.00,weatherlink.com 1.10,2013-10-08 23:38:00,
2013-10-08 18:53:00,68.7,46.0,29.93,South,179,9.0,15.0,44,0.00,,,0.00,weatherlink.com 1.10,2013-10-08 23:53:00,
2013-10-08 19:08:00,67.4,47.0,29.93,SSE,156,14.0,16.0,48,0.00,,,0.00,weatherlink.com 1.10,2013-10-09 00:08:00,
2013-10-08 19:23:00,67.2,46.0,29.94,SSE,160,17.0,20.0,47,0.00,,,0.00,weatherlink.com 1.10,2013-10-09 00:23:00,
2013-10-08 19:38:00,66.8,46.0,29.94,SSE,167,14.0,21.0,48,0.00,,,0.00,weatherlink.com 1.10,2013-10-09 00:38:00,
2013-10-08 19:53:00,66.2,47.0,29.94,SSE,152,12.0,22.0,50,0.00,,,0.00,weatherlink.com 1.10,2013-10-09 00:53:00,
2013-10-08 20:23:00,65.3,47.0,29.95,SSE,148,10.0,20.0,52,0.00,,,0.00,weatherlink.com 1.10,2013-10-09 01:23:00,
2013-10-08 20:38:00,64.5,47.0,29.95,South,176,11.0,18.0,54,0.00,,,0.00,weatherlink.com 1.10,2013-10-09 01:38:00,
2013-10-08 20:54:00,64.0,47.0,29.95,SW,214,12.0,17.0,55,0.00,,,0.00,weatherlink.com 1.10,2013-10-09 01:54:00,
2013-10-08 21:08:00,63.9,48.0,29.96,South,178,12.0,20.0,56,0.00,,,0.00,weatherlink.com 1.10,2013-10-09 02:08:00,
2013-10-08 21:23:00,63.7,48.0,29.96,South,176,8.0,25.0,56,0.00,,,0.00,weatherlink.com 1.10,2013-10-09 02:23:00,
2013-10-08 21:38:00,63.1,47.0,29.96,South,171,13.0,22.0,57,0.00,,,0.00,weatherlink.com 1.10,2013-10-09 02:38:00,
2013-10-08 21:53:00,62.6,47.0,29.96,South,181,9.0,18.0,58,0.00,,,0.00,weatherlink.com 1.10,2013-10-09 02:53:00,
2013-10-08 22:08:00,62.2,47.0,29.97,SSE,166,16.0,19.0,59,0.00,,,0.00,weatherlink.com 1.10,2013-10-09 03:08:00,
2013-10-08 22:23:00,62.0,48.0,29.97,SSE,148,15.0,20.0,60,0.00,,,0.00,weatherlink.com 1.10,2013-10-09 03:23:00,
2013-10-08 22:38:00,61.8,48.0,29.97,South,179,11.0,19.0,61,0.00,,,0.00,weatherlink.com 1.10,2013-10-09 03:38:00,
2013-10-08 22:53:00,61.4,48.0,29.98,SSW,203,11.0,22.0,62,0.00,,,0.00,weatherlink.com 1.10,2013-10-09 03:53:00,
2013-10-08 23:08:00,61.1,48.0,29.98,South,191,14.0,19.0,63,0.00,,,0.00,weatherlink.com 1.10,2013-10-09 04:08:00,
2013-10-08 23:24:00,60.9,48.0,29.99,South,174,13.0,20.0,63,0.00,,,0.00,weatherlink.com 1.10,2013-10-09 04:24:00,
2013-10-08 23:39:00,60.4,48.0,29.99,SSE,163,15.0,22.0,64,0.00,,,0.00,weatherlink.com 1.10,2013-10-09 04:39:00,
2013-10-08 23:53:00,60.0,48.0,29.99,South,188,11.0,19.0,65,0.00,,,0.00,weatherlink.com 1.10,2013-10-09 04:53:00,